When you browse on this site, cookies collect data to enhance your experience and personalize the content and advertising you see.
Visit our Privacy Policy to learn more. By continuing to use the site, you agree to this use of cookies and data.
  • In Österreich
  • Länderverzeichnis
  • Für 7 Tage
  • Wassertemperatur
  • Satellitenkarten
  • Wetterkarte
  • News
  • Widgets
  • user-avatar
    Anmelden

    Stündliche Wetter Tbilissi

    Heute, 18 November, Sonntag

    Zeit Temperatur Niederschläge Wind Luftdruck Luftfeuchtigkeit
    00:00 +4°C° 0 mm 2 m/S 707 mmHg 74%
    01:00 +3°C° 0 mm 2 m/S 707 mmHg 74%
    02:00 +3°C° 0 mm 2 m/S 706 mmHg 74%
    03:00 +3°C° 0 mm 2 m/S 706 mmHg 74%
    04:00 +3°C° 0 mm 2 m/S 706 mmHg 74%
    05:00 +3°C° 0 mm 2 m/S 706 mmHg 74%
    06:00 +4°C° 0 mm 1 m/S 706 mmHg 73%
    07:00 +5°C° 0 mm 1 m/S 706 mmHg 68%
    08:00 +6°C° 0 mm 1 m/S 706 mmHg 63%
    09:00 +7°C° 0 mm 1 m/S 706 mmHg 58%
    10:00 +8°C° 0 mm 1 m/S 705 mmHg 54%
    11:00 +9°C° 0 mm 1 m/S 705 mmHg 51%
    12:00 +9°C° 0 mm 2 m/S 705 mmHg 47%
    13:00 +9°C° 0 mm 2 m/S 705 mmHg 47%
    14:00 +10°C° 0 mm 1 m/S 704 mmHg 47%
    15:00 +10°C° 0 mm 1 m/S 704 mmHg 47%
    16:00 +9°C° 0 mm 1 m/S 705 mmHg 53%
    17:00 +8°C° 0 mm 1 m/S 705 mmHg 59%
    18:00 +7°C° 0 mm 1 m/S 705 mmHg 64%
    19:00 +6°C° 0 mm 1 m/S 705 mmHg 66%
    20:00 +6°C° 0 mm 1 m/S 705 mmHg 67%
    21:00 +5°C° 0 mm 1 m/S 705 mmHg 69%
    22:00 +5°C° 0 mm 1 m/S 705 mmHg 69%
    23:00 +5°C° 0 mm 1 m/S 705 mmHg 69%

    Morgen, 19 November, Montag

    Zeit Temperatur Niederschläge Wind Luftdruck Luftfeuchtigkeit
    00:00 +4°C° 0 mm 1 m/S 705 mmHg 70%
    01:00 +4°C° 0 mm 1 m/S 705 mmHg 70%
    02:00 +4°C° 0 mm 1 m/S 705 mmHg 70%
    03:00 +4°C° 0 mm 1 m/S 705 mmHg 70%
    04:00 +3°C° 0 mm 1 m/S 705 mmHg 69%
    05:00 +3°C° 0 mm 1 m/S 705 mmHg 69%
    06:00 +3°C° 0 mm 1 m/S 705 mmHg 69%
    07:00 +4°C° 0 mm 1 m/S 705 mmHg 65%
    08:00 +5°C° 0 mm 1 m/S 705 mmHg 60%
    09:00 +7°C° 0 mm 1 m/S 705 mmHg 56%
    10:00 +8°C° 0 mm 1 m/S 705 mmHg 53%
    11:00 +9°C° 0 mm 1 m/S 705 mmHg 49%
    12:00 +10°C° 0 mm 1 m/S 704 mmHg 46%
    13:00 +10°C° 0 mm 1 m/S 704 mmHg 46%
    14:00 +10°C° 0 mm 1 m/S 704 mmHg 47%
    15:00 +10°C° 0 mm 1 m/S 704 mmHg 47%
    16:00 +9°C° 0 mm 1 m/S 704 mmHg 52%
    17:00 +8°C° 0 mm 1 m/S 704 mmHg 58%
    18:00 +6°C° 0 mm 1 m/S 704 mmHg 63%
    19:00 +6°C° 0 mm 1 m/S 704 mmHg 63%
    20:00 +6°C° 0 mm 1 m/S 704 mmHg 64%
    21:00 +6°C° 0 mm 1 m/S 704 mmHg 64%
    22:00 +5°C° 0 mm 1 m/S 704 mmHg 65%
    23:00 +5°C° 0 mm 1 m/S 704 mmHg 65%

    übermorgen, 20 November, Dienstag

    Zeit Temperatur Niederschläge Wind Luftdruck Luftfeuchtigkeit
    00:00 +5°C° 0 mm 1 m/S 704 mmHg 65%
    01:00 +5°C° 0 mm 1 m/S 704 mmHg 65%
    02:00 +5°C° 0 mm 1 m/S 704 mmHg 66%
    03:00 +5°C° 0 mm 1 m/S 704 mmHg 66%
    04:00 +5°C° 0 mm 1 m/S 704 mmHg 65%
    05:00 +5°C° 0 mm 1 m/S 704 mmHg 65%
    06:00 +5°C° 0 mm 1 m/S 703 mmHg 64%
    07:00 +6°C° 0 mm 1 m/S 704 mmHg 60%
    08:00 +7°C° 0 mm 1 m/S 704 mmHg 55%
    09:00 +8°C° 0 mm 1 m/S 704 mmHg 51%
    10:00 +10°C° 0 mm 1 m/S 703 mmHg 48%
    11:00 +11°C° 0 mm 1 m/S 703 mmHg 44%
    12:00 +12°C° 0 mm 1 m/S 703 mmHg 41%
    13:00 +12°C° 0 mm 2 m/S 703 mmHg 42%
    14:00 +13°C° 0 mm 2 m/S 703 mmHg 43%
    15:00 +13°C° 0 mm 2 m/S 702 mmHg 45%
    16:00 +10°C° 0 mm 2 m/S 702 mmHg 50%
    17:00 +9°C° 0 mm 2 m/S 703 mmHg 55%
    18:00 +9°C° 0 mm 1 m/S 703 mmHg 61%
    19:00 +8°C° 0 mm 2 m/S 703 mmHg 63%
    20:00 +7°C° 0 mm 2 m/S 703 mmHg 66%
    21:00 +7°C° 0 mm 2 m/S 703 mmHg 68%
    22:00 +7°C° 0 mm 2 m/S 703 mmHg 70%
    23:00 +6°C° 0 mm 2 m/S 703 mmHg 72%

    21 November, Mittwoch

    Zeit Temperatur Niederschläge Wind Luftdruck Luftfeuchtigkeit
    00:00 +6°C° 0 mm 2 m/S 702 mmHg 74%
    01:00 +6°C° 0 mm 2 m/S 702 mmHg 76%
    02:00 +6°C° 0 mm 2 m/S 702 mmHg 77%
    03:00 +6°C° 0 mm 2 m/S 702 mmHg 78%
    04:00 +6°C° 0 mm 2 m/S 702 mmHg 79%
    05:00 +6°C° 0 mm 2 m/S 702 mmHg 80%
    06:00 +5°C° 0 mm 2 m/S 702 mmHg 81%
    07:00 +7°C° 0 mm 2 m/S 702 mmHg 76%
    08:00 +8°C° 0 mm 3 m/S 702 mmHg 71%
    09:00 +9°C° 0 mm 3 m/S 702 mmHg 66%
    10:00 +10°C° 0 mm 3 m/S 702 mmHg 61%
    11:00 +11°C° 0 mm 3 m/S 702 mmHg 55%
    12:00 +12°C° 0 mm 4 m/S 701 mmHg 50%
    13:00 +12°C° 0 mm 3 m/S 701 mmHg 50%
    14:00 +12°C° 0 mm 3 m/S 701 mmHg 50%
    15:00 +13°C° 0 mm 3 m/S 700 mmHg 50%
    16:00 +12°C° 0 mm 2 m/S 700 mmHg 57%
    17:00 +10°C° 0 mm 2 m/S 700 mmHg 64%
    18:00 +9°C° 0 mm 1 m/S 700 mmHg 70%
    19:00 +9°C° 0 mm 1 m/S 700 mmHg 71%
    20:00 +8°C° 0 mm 1 m/S 701 mmHg 72%
    21:00 +8°C° 0 mm 1 m/S 701 mmHg 73%
    22:00 +8°C° 0 mm 1 m/S 700 mmHg 74%
    23:00 +7°C° 0 mm 1 m/S 700 mmHg 74%

    22 November, Donnerstag

    Zeit Temperatur Niederschläge Wind Luftdruck Luftfeuchtigkeit
    00:00 +7°C° 0 mm 1 m/S 700 mmHg 74%
    01:00 +7°C° 0 mm 1 m/S 700 mmHg 74%
    02:00 +7°C° 0 mm 1 m/S 700 mmHg 74%
    03:00 +7°C° 0 mm 1 m/S 699 mmHg 75%
    04:00 +6°C° 0 mm 1 m/S 699 mmHg 75%
    05:00 +6°C° 0 mm 1 m/S 699 mmHg 76%
    06:00 +6°C° 0 mm 1 m/S 699 mmHg 76%
    07:00 +7°C° 0 mm 1 m/S 699 mmHg 74%
    08:00 +7°C° 0 mm 1 m/S 699 mmHg 72%
    09:00 +8°C° 0 mm 1 m/S 699 mmHg 69%
    10:00 +9°C° 0 mm 1 m/S 699 mmHg 67%
    11:00 +10°C° 0 mm 1 m/S 698 mmHg 64%
    12:00 +10°C° 0 mm 1 m/S 698 mmHg 61%
    13:00 +10°C° 0.1 mm 1 m/S 698 mmHg 62%
    14:00 +10°C° 0.1 mm 1 m/S 698 mmHg 62%
    15:00 +10°C° 0.1 mm 1 m/S 698 mmHg 63%
    16:00 +9°C° 0.1 mm 1 m/S 698 mmHg 67%
    17:00 +8°C° 0.1 mm 0 m/S 698 mmHg 71%
    18:00 +7°C° 0.1 mm 0 m/S 698 mmHg 75%
    19:00 +7°C° 0.1 mm 0 m/S 699 mmHg 77%
    20:00 +7°C° 0.1 mm 0 m/S 699 mmHg 78%
    21:00 +6°C° 0.1 mm 0 m/S 699 mmHg 80%
    22:00 +6°C° 0.1 mm 0 m/S 699 mmHg 81%
    23:00 +7°C° 0.1 mm 1 m/S 699 mmHg 82%

    23 November, Freitag

    Zeit Temperatur Niederschläge Wind Luftdruck Luftfeuchtigkeit
    00:00 +7°C° 0.1 mm 1 m/S 699 mmHg 83%
    01:00 +7°C° 0.1 mm 1 m/S 699 mmHg 84%
    02:00 +7°C° 0.1 mm 1 m/S 699 mmHg 84%
    03:00 +6°C° 0.1 mm 0 m/S 699 mmHg 85%
    04:00 +6°C° 0.1 mm 0 m/S 699 mmHg 86%
    05:00 +6°C° 0.1 mm 0 m/S 699 mmHg 86%
    06:00 +6°C° 0.1 mm 0 m/S 699 mmHg 86%
    07:00 +7°C° 0.1 mm 1 m/S 699 mmHg 84%
    08:00 +7°C° 0.1 mm 1 m/S 700 mmHg 82%
    09:00 +8°C° 0.1 mm 1 m/S 700 mmHg 80%
    10:00 +8°C° 0.3 mm 1 m/S 700 mmHg 80%
    11:00 +8°C° 0.3 mm 1 m/S 700 mmHg 79%
    12:00 +9°C° 0.3 mm 1 m/S 700 mmHg 78%
    13:00 +9°C° 0.2 mm 1 m/S 701 mmHg 77%
    14:00 +9°C° 0.2 mm 1 m/S 701 mmHg 77%
    15:00 +9°C° 0.2 mm 1 m/S 701 mmHg 76%
    16:00 +9°C° 0 mm 1 m/S 702 mmHg 79%
    17:00 +8°C° 0 mm 1 m/S 703 mmHg 82%
    18:00 +7°C° 0 mm 1 m/S 703 mmHg 85%
    19:00 +7°C° 0 mm 1 m/S 704 mmHg 85%
    20:00 +7°C° 0 mm 1 m/S 704 mmHg 85%
    21:00 +7°C° 0 mm 1 m/S 705 mmHg 85%
    22:00 +7°C° 0 mm 1 m/S 705 mmHg 86%
    23:00 +7°C° 0 mm 1 m/S 705 mmHg 86%
    Mehr zeigen